Voltar ao catálogo

FENGYUN 1C DEB

AtivoPO
NORAD 29794·DEBRIS·🇨🇳 China

Lançado May 10, 1999 de Taiyuan Satellite Launch Center

Loading…

Próximas Passagens (próximas 24 horas)

TLE

AtualizadoSource: Space-Track

Época: Sep 14, 2026, 21:05 UTC

1 29794U 99025CL  26257.87877854  .00000555  00000-0  30385-3 0  9999
2 29794  98.2334  37.5300 0154639 327.5047 186.3948 14.09631350  7262

Acompanhe FENGYUN 1C DEB em tempo real com AllMySat

Download on the App Store